sat.trackr.live / text

‹ back to catalog

STARLINK-5703

NORAD 55593 · 2023-020AA

PAYLOAD ACTIVE UNKNOWN

§ Identity

Operator
Country
US
Launch date
2023-02-12
Launch site
AFETR
Launch vehicle
Mass (kg)
RCS (m²)

Purposes: comms

External: N2YO · Heavens-Above · Gunter

§ Orbital elements

Epoch: 2026-09-20T21:52:55.687296Z

Period
94.27 min
Inclination
43.0028°
Eccentricity
0.0001063
Mean motion
15.27574363 rev/d
Perigee alt
482.3 km
Apogee alt
483.8 km
Semi-major
6,861.2 km
B*
-5.2533e-6
RAAN
342.3333°
Arg perigee
268.6274°
Mean anomaly
91.4456°
Rev number
19,877

§ Raw data

STARLINK-57031 55593U 23020AA  26263.91175564 -.00000407  00000+0 -52533-5 0  99962 55593  43.0028 342.3333 0001063 268.6274  91.4456 15.27574363198776

JSON: /api/v1/satellites/55593 · /tle

For live sub-satellite position, see the globe view (requires WebGL).

§ Visibility from observer

Set your observer location to see the next 7 days of passes ≥ 10°. The values pass through the URL so the page stays shareable.

No JS? Fill the form by hand. The geolocation button needs JavaScript.